Time,TemperatureF,DewpointF,PressureIn,WindDirection,WindDirectionDegrees,WindSpeedMPH,WindSpeedGustMPH,Humidity,HourlyPrecipIn,Conditions,Clouds,dailyrainin,SolarRadiationWatts/m^2,SoftwareType,DateUTC
2013-05-09 00:01:00,50.0,36.0,-100.00,WSW,245,8.0,10.0,58,0.00,,,0.00,0.000000,,2013-05-09 06:01:00,
2013-05-09 00:11:00,50.0,36.0,-100.00,WSW,245,8.0,10.0,58,0.00,,,0.00,0.000000,,2013-05-09 06:11:00,
2013-05-09 00:21:00,50.0,36.0,-100.00,WSW,245,8.0,10.0,58,0.00,,,0.00,0.000000,,2013-05-09 06:21:00,
2013-05-09 00:42:00,48.0,34.0,-100.00,WSW,247,10.0,11.0,59,0.00,,,0.00,0.000000,,2013-05-09 06:42:00,
2013-05-09 00:52:00,48.0,34.0,-100.00,WSW,247,10.0,11.0,59,0.00,,,0.00,0.000000,,2013-05-09 06:52:00,
2013-05-09 01:01:00,48.0,34.0,-100.00,WSW,247,10.0,11.0,59,0.00,,,0.00,0.000000,,2013-05-09 07:01:00,
2013-05-09 01:12:00,48.0,34.0,-100.00,WSW,247,10.0,11.0,59,0.00,,,0.00,0.000000,,2013-05-09 07:12:00,
2013-05-09 01:21:00,48.0,34.0,-100.00,WSW,247,10.0,11.0,59,0.00,,,0.00,0.000000,,2013-05-09 07:21:00,
2013-05-09 01:43:00,46.0,34.0,-100.00,SW,233,5.0,11.0,63,0.00,,,0.00,0.000000,,2013-05-09 07:43:00,
2013-05-09 01:52:00,46.0,34.0,-100.00,SW,233,5.0,11.0,63,0.00,,,0.00,0.000000,,2013-05-09 07:52:00,
2013-05-09 02:02:00,46.0,34.0,-100.00,SW,233,5.0,11.0,63,0.00,,,0.00,0.000000,,2013-05-09 08:02:00,
2013-05-09 02:11:00,46.0,34.0,-100.00,SW,233,5.0,11.0,63,0.00,,,0.00,0.000000,,2013-05-09 08:11:00,
2013-05-09 02:21:00,46.0,34.0,-100.00,SW,233,5.0,11.0,63,0.00,,,0.00,0.000000,,2013-05-09 08:21:00,
2013-05-09 02:42:00,46.0,34.0,-100.00,WSW,242,7.0,10.0,63,0.00,,,0.00,0.000000,,2013-05-09 08:42:00,
2013-05-09 02:52:00,46.0,34.0,-100.00,WSW,242,7.0,10.0,63,0.00,,,0.00,0.000000,,2013-05-09 08:52:00,
2013-05-09 03:02:00,46.0,34.0,-100.00,WSW,242,7.0,10.0,63,0.00,,,0.00,0.000000,,2013-05-09 09:02:00,
2013-05-09 03:11:00,46.0,34.0,-100.00,WSW,242,7.0,10.0,63,0.00,,,0.00,0.000000,,2013-05-09 09:11:00,
2013-05-09 03:21:00,46.0,34.0,-100.00,WSW,242,7.0,10.0,63,0.00,,,0.00,0.000000,,2013-05-09 09:21:00,
2013-05-09 03:22:00,44.0,35.0,-100.00,WSW,241,4.0,10.0,70,0.00,,,0.00,0.000000,,2013-05-09 09:22:00,
2013-05-09 03:43:00,44.0,35.0,-100.00,WSW,241,4.0,10.0,70,0.00,,,0.00,0.000000,,2013-05-09 09:43:00,
2013-05-09 03:53:00,44.0,35.0,-100.00,WSW,241,4.0,10.0,70,0.00,,,0.00,0.000000,,2013-05-09 09:53:00,
2013-05-09 04:02:00,44.0,35.0,-100.00,WSW,241,4.0,10.0,70,0.00,,,0.00,0.000000,,2013-05-09 10:02:00,
2013-05-09 04:12:00,44.0,35.0,-100.00,WSW,241,4.0,10.0,70,0.00,,,0.00,0.000000,,2013-05-09 10:12:00,
2013-05-09 04:22:00,46.0,35.0,-100.00,WSW,243,10.0,13.0,65,0.00,,,0.00,0.000000,,2013-05-09 10:22:00,
2013-05-09 04:42:00,46.0,35.0,-100.00,WSW,243,10.0,13.0,65,0.00,,,0.00,0.000000,,2013-05-09 10:42:00,
2013-05-09 04:52:00,46.0,35.0,-100.00,WSW,243,10.0,13.0,65,0.00,,,0.00,0.000000,,2013-05-09 10:52:00,
2013-05-09 05:02:00,46.0,35.0,-100.00,WSW,243,10.0,13.0,65,0.00,,,0.00,0.000000,,2013-05-09 11:02:00,
2013-05-09 05:12:00,46.0,35.0,-100.00,WSW,243,10.0,13.0,65,0.00,,,0.00,0.000000,,2013-05-09 11:12:00,
2013-05-09 05:42:00,43.0,33.0,-100.00,West,264,3.0,10.0,68,0.00,,,0.00,0.000000,,2013-05-09 11:42:00,
2013-05-09 05:52:00,43.0,33.0,-100.00,West,264,3.0,10.0,68,0.00,,,0.00,0.000000,,2013-05-09 11:52:00,
2013-05-09 06:01:00,43.0,33.0,-100.00,West,264,3.0,10.0,68,0.00,,,0.00,0.000000,,2013-05-09 12:01:00,
2013-05-09 06:11:00,43.0,33.0,-100.00,West,264,3.0,10.0,68,0.00,,,0.00,0.000000,,2013-05-09 12:11:00,
2013-05-09 06:21:00,43.0,33.0,-100.00,West,264,3.0,10.0,68,0.00,,,0.00,0.000000,,2013-05-09 12:21:00,
2013-05-09 06:42:00,43.0,34.0,-100.00,ESE,113,2.0,8.0,70,0.00,,,0.00,6.000000,,2013-05-09 12:42:00,
2013-05-09 06:52:00,43.0,34.0,-100.00,ESE,113,2.0,8.0,70,0.00,,,0.00,6.000000,,2013-05-09 12:52:00,
2013-05-09 07:01:00,43.0,34.0,-100.00,ESE,113,2.0,8.0,70,0.00,,,0.00,6.000000,,2013-05-09 13:01:00,
2013-05-09 07:12:00,43.0,34.0,-100.00,ESE,113,2.0,8.0,70,0.00,,,0.00,6.000000,,2013-05-09 13:12:00,
2013-05-09 07:21:00,43.0,34.0,-100.00,ESE,113,2.0,8.0,70,0.00,,,0.00,6.000000,,2013-05-09 13:21:00,
2013-05-09 07:42:00,50.0,37.0,-100.00,South,170,1.0,6.0,60,0.00,,,0.00,116.000000,,2013-05-09 13:42:00,
2013-05-09 07:52:00,50.0,37.0,-100.00,South,170,1.0,6.0,60,0.00,,,0.00,116.000000,,2013-05-09 13:52:00,
2013-05-09 08:01:00,50.0,37.0,-100.00,South,170,1.0,6.0,60,0.00,,,0.00,116.000000,,2013-05-09 14:01:00,
2013-05-09 08:11:00,50.0,37.0,-100.00,South,170,1.0,6.0,60,0.00,,,0.00,116.000000,,2013-05-09 14:11:00,
2013-05-09 08:21:00,50.0,37.0,-100.00,South,170,1.0,6.0,60,0.00,,,0.00,116.000000,,2013-05-09 14:21:00,
2013-05-09 08:42:00,52.0,37.0,-100.00,South,189,2.0,5.0,57,0.00,,,0.00,194.000000,,2013-05-09 14:42:00,
2013-05-09 08:52:00,52.0,37.0,-100.00,South,189,2.0,5.0,57,0.00,,,0.00,194.000000,,2013-05-09 14:52:00,
2013-05-09 09:01:00,52.0,37.0,-100.00,South,189,2.0,5.0,57,0.00,,,0.00,194.000000,,2013-05-09 15:01:00,
2013-05-09 09:11:00,52.0,37.0,-100.00,South,189,2.0,5.0,57,0.00,,,0.00,194.000000,,2013-05-09 15:11:00,
2013-05-09 09:21:00,52.0,37.0,-100.00,South,189,2.0,5.0,57,0.00,,,0.00,194.000000,,2013-05-09 15:21:00,
2013-05-09 09:22:00,60.0,38.0,-100.00,SW,220,8.0,12.0,44,0.00,,,0.00,469.000000,,2013-05-09 15:22:00,
2013-05-09 09:43:00,60.0,38.0,-100.00,SW,220,8.0,12.0,44,0.00,,,0.00,469.000000,,2013-05-09 15:43:00,
2013-05-09 09:53:00,60.0,38.0,-100.00,SW,220,8.0,12.0,44,0.00,,,0.00,469.000000,,2013-05-09 15:53:00,
2013-05-09 10:03:00,60.0,38.0,-100.00,SW,220,8.0,12.0,44,0.00,,,0.00,469.000000,,2013-05-09 16:03:00,
2013-05-09 10:12:00,60.0,38.0,-100.00,SW,220,8.0,12.0,44,0.00,,,0.00,469.000000,,2013-05-09 16:12:00,
2013-05-09 10:42:00,65.0,39.0,-100.00,North,5,5.0,11.0,38,0.00,,,0.00,472.000000,,2013-05-09 16:42:00,
2013-05-09 10:53:00,65.0,39.0,-100.00,North,5,5.0,11.0,38,0.00,,,0.00,472.000000,,2013-05-09 16:53:00,
2013-05-09 11:02:00,65.0,39.0,-100.00,North,5,5.0,11.0,38,0.00,,,0.00,472.000000,,2013-05-09 17:02:00,
2013-05-09 11:12:00,65.0,39.0,-100.00,North,5,5.0,11.0,38,0.00,,,0.00,472.000000,,2013-05-09 17:12:00,
2013-05-09 11:21:00,65.0,39.0,-100.00,North,5,5.0,11.0,38,0.00,,,0.00,472.000000,,2013-05-09 17:21:00,
2013-05-09 11:42:00,68.0,38.0,-100.00,NNE,21,6.0,12.0,33,0.00,,,0.00,906.000000,,2013-05-09 17:42:00,
2013-05-09 11:55:00,68.0,38.0,-100.00,NNE,21,6.0,12.0,33,0.00,,,0.00,906.000000,,2013-05-09 17:55:00,
2013-05-09 12:01:00,68.0,38.0,-100.00,NNE,21,6.0,12.0,33,0.00,,,0.00,906.000000,,2013-05-09 18:01:00,
2013-05-09 12:12:00,68.0,38.0,-100.00,NNE,21,6.0,12.0,33,0.00,,,0.00,906.000000,,2013-05-09 18:12:00,
2013-05-09 12:21:00,68.0,38.0,-100.00,NNE,21,6.0,12.0,33,0.00,,,0.00,906.000000,,2013-05-09 18:21:00,
2013-05-09 12:52:00,71.0,42.0,-100.00,West,268,3.0,16.0,35,0.00,,,-99.99,1174.000000,,2013-05-09 18:52:00,
2013-05-09 13:01:00,71.0,42.0,-100.00,West,268,3.0,16.0,35,0.00,,,-99.99,1174.000000,,2013-05-09 19:01:00,
2013-05-09 13:11:00,71.0,42.0,-100.00,West,268,3.0,16.0,35,0.00,,,-99.99,1174.000000,,2013-05-09 19:11:00,
2013-05-09 13:21:00,71.0,42.0,-100.00,West,268,3.0,16.0,35,0.00,,,-99.99,1174.000000,,2013-05-09 19:21:00,
2013-05-09 13:42:00,68.0,35.0,-100.00,ESE,109,6.0,11.0,30,0.00,,,0.00,1035.000000,,2013-05-09 19:42:00,
2013-05-09 13:52:00,68.0,35.0,-100.00,ESE,109,6.0,11.0,30,0.00,,,0.00,1035.000000,,2013-05-09 19:52:00,
2013-05-09 14:01:00,68.0,35.0,-100.00,ESE,109,6.0,11.0,30,0.00,,,0.00,1035.000000,,2013-05-09 20:01:00,
2013-05-09 14:11:00,68.0,35.0,-100.00,ESE,109,6.0,11.0,30,0.00,,,0.00,1035.000000,,2013-05-09 20:11:00,
2013-05-09 14:21:00,68.0,35.0,-100.00,ESE,109,6.0,11.0,30,0.00,,,0.00,1035.000000,,2013-05-09 20:21:00,
2013-05-09 14:22:00,70.0,34.0,-100.00,East,99,6.0,13.0,27,0.00,,,0.00,608.000000,,2013-05-09 20:22:00,
2013-05-09 14:42:00,70.0,34.0,-100.00,East,99,6.0,13.0,27,0.00,,,0.00,608.000000,,2013-05-09 20:42:00,
2013-05-09 14:52:00,70.0,34.0,-100.00,East,99,6.0,13.0,27,0.00,,,0.00,608.000000,,2013-05-09 20:52:00,
2013-05-09 15:01:00,70.0,34.0,-100.00,East,99,6.0,13.0,27,0.00,,,0.00,608.000000,,2013-05-09 21:01:00,
2013-05-09 15:11:00,70.0,34.0,-100.00,East,99,6.0,13.0,27,0.00,,,0.00,608.000000,,2013-05-09 21:11:00,
2013-05-09 15:22:00,63.0,35.0,-100.00,West,278,18.0,28.0,35,0.00,,,0.00,369.000000,,2013-05-09 21:22:00,
2013-05-09 15:43:00,63.0,35.0,-100.00,West,278,18.0,28.0,35,0.00,,,0.00,369.000000,,2013-05-09 21:43:00,
2013-05-09 15:53:00,63.0,35.0,-100.00,West,278,18.0,28.0,35,0.00,,,0.00,369.000000,,2013-05-09 21:53:00,
2013-05-09 16:03:00,63.0,35.0,-100.00,West,278,18.0,28.0,35,0.00,,,0.00,369.000000,,2013-05-09 22:03:00,
2013-05-09 16:12:00,63.0,35.0,-100.00,West,278,18.0,28.0,35,0.00,,,0.00,369.000000,,2013-05-09 22:12:00,
2013-05-09 16:42:00,61.0,36.0,-100.00,WSW,245,12.0,31.0,39,0.00,,,0.00,218.000000,,2013-05-09 22:42:00,
2013-05-09 16:52:00,61.0,36.0,-100.00,WSW,245,12.0,31.0,39,0.00,,,0.00,218.000000,,2013-05-09 22:52:00,
2013-05-09 17:02:00,61.0,36.0,-100.00,WSW,245,12.0,31.0,39,0.00,,,0.00,218.000000,,2013-05-09 23:02:00,
2013-05-09 17:11:00,61.0,36.0,-100.00,WSW,245,12.0,31.0,39,0.00,,,0.00,218.000000,,2013-05-09 23:11:00,
2013-05-09 17:21:00,61.0,36.0,-100.00,WSW,245,12.0,31.0,39,0.00,,,0.00,218.000000,,2013-05-09 23:21:00,
2013-05-09 17:42:00,61.0,36.0,-100.00,West,259,19.0,31.0,40,0.00,,,-99.99,435.000000,,2013-05-09 23:42:00,
2013-05-09 17:52:00,61.0,36.0,-100.00,West,259,19.0,31.0,40,0.00,,,-99.99,435.000000,,2013-05-09 23:52:00,
2013-05-09 18:01:00,61.0,36.0,-100.00,West,259,19.0,31.0,40,0.00,,,-99.99,435.000000,,2013-05-10 00:01:00,
2013-05-09 18:11:00,61.0,36.0,-100.00,West,259,19.0,31.0,40,0.00,,,-99.99,435.000000,,2013-05-10 00:11:00,
2013-05-09 18:21:00,61.0,36.0,-100.00,West,259,19.0,31.0,40,0.00,,,-99.99,435.000000,,2013-05-10 00:21:00,
2013-05-09 18:42:00,62.0,36.0,-100.00,West,272,16.0,26.0,38,0.00,,,0.00,346.000000,,2013-05-10 00:42:00,
2013-05-09 18:52:00,62.0,36.0,-100.00,West,272,16.0,26.0,38,0.00,,,0.00,346.000000,,2013-05-10 00:52:00,
2013-05-09 19:01:00,62.0,36.0,-100.00,West,272,16.0,26.0,38,0.00,,,0.00,346.000000,,2013-05-10 01:01:00,
2013-05-09 19:11:00,62.0,36.0,-100.00,West,272,16.0,26.0,38,0.00,,,0.00,346.000000,,2013-05-10 01:11:00,
2013-05-09 19:21:00,62.0,36.0,-100.00,West,272,16.0,26.0,38,0.00,,,0.00,346.000000,,2013-05-10 01:21:00,
2013-05-09 19:42:00,63.0,34.0,-100.00,West,277,12.0,23.0,34,0.00,,,0.00,404.000000,,2013-05-10 01:42:00,
2013-05-09 19:52:00,63.0,34.0,-100.00,West,277,12.0,23.0,34,0.00,,,0.00,404.000000,,2013-05-10 01:52:00,
2013-05-09 20:01:00,63.0,34.0,-100.00,West,277,12.0,23.0,34,0.00,,,0.00,404.000000,,2013-05-10 02:01:00,
2013-05-09 20:11:00,63.0,34.0,-100.00,West,277,12.0,23.0,34,0.00,,,0.00,404.000000,,2013-05-10 02:11:00,
2013-05-09 20:21:00,63.0,34.0,-100.00,West,277,12.0,23.0,34,0.00,,,0.00,404.000000,,2013-05-10 02:21:00,
2013-05-09 20:42:00,58.0,35.0,-100.00,West,276,10.0,16.0,42,0.00,,,0.00,73.000000,,2013-05-10 02:42:00,
2013-05-09 20:52:00,58.0,35.0,-100.00,West,276,10.0,16.0,42,0.00,,,0.00,73.000000,,2013-05-10 02:52:00,
2013-05-09 21:01:00,58.0,35.0,-100.00,West,276,10.0,16.0,42,0.00,,,0.00,73.000000,,2013-05-10 03:01:00,
2013-05-09 21:11:00,58.0,35.0,-100.00,West,276,10.0,16.0,42,0.00,,,0.00,73.000000,,2013-05-10 03:11:00,
2013-05-09 21:21:00,58.0,35.0,-100.00,West,276,10.0,16.0,42,0.00,,,0.00,73.000000,,2013-05-10 03:21:00,
2013-05-09 21:22:00,52.0,33.0,-100.00,WSW,246,9.0,13.0,48,0.00,,,0.00,2.000000,,2013-05-10 03:22:00,
2013-05-09 21:43:00,52.0,33.0,-100.00,WSW,246,9.0,13.0,48,0.00,,,0.00,2.000000,,2013-05-10 03:43:00,
2013-05-09 21:53:00,52.0,33.0,-100.00,WSW,246,9.0,13.0,48,0.00,,,0.00,2.000000,,2013-05-10 03:53:00,
2013-05-09 22:03:00,52.0,33.0,-100.00,WSW,246,9.0,13.0,48,0.00,,,0.00,2.000000,,2013-05-10 04:03:00,
2013-05-09 22:12:00,52.0,33.0,-100.00,WSW,246,9.0,13.0,48,0.00,,,0.00,2.000000,,2013-05-10 04:12:00,
2013-05-09 22:43:00,52.0,35.0,-100.00,WSW,244,10.0,13.0,52,0.00,,,0.00,0.000000,,2013-05-10 04:43:00,
2013-05-09 22:53:00,52.0,35.0,-100.00,WSW,244,10.0,13.0,52,0.00,,,0.00,0.000000,,2013-05-10 04:53:00,
2013-05-09 23:02:00,52.0,35.0,-100.00,WSW,244,10.0,13.0,52,0.00,,,0.00,0.000000,,2013-05-10 05:02:00,
2013-05-09 23:12:00,52.0,35.0,-100.00,WSW,244,10.0,13.0,52,0.00,,,0.00,0.000000,,2013-05-10 05:12:00,
2013-05-09 23:21:00,52.0,35.0,-100.00,WSW,244,10.0,13.0,52,0.00,,,0.00,0.000000,,2013-05-10 05:21:00,
2013-05-09 23:42:00,50.0,32.0,-100.00,WSW,244,11.0,16.0,50,0.00,,,0.00,0.000000,,2013-05-10 05:42:00,
2013-05-09 23:52:00,50.0,32.0,-100.00,WSW,244,11.0,16.0,50,0.00,,,0.00,0.000000,,2013-05-10 05:52:00,